AVA9786 SKBO-SKCG

Flight info

Callsign AVA9786
Flight time 1h 3m
Altitude 37000
Route OSUSU4R GIKPU UQ120 DIBAM UW10 UGREB UGREB3B
Aircraft A319/M-SDE3FGHIRWY/LB1

Departure

Time 2026-05-04 17:14
Airport El Dorado International Airport (SKBO)

Arrival

Time 2026-05-04 18:17
Airport Rafael Nuñez International Airport (SKCG)
Time Latitude Longitude Altitude Speed Heading
2026-05-04 16:47 4.69796 -74.14524 8362 ft 0 kts 36°
2026-05-04 17:01 4.69762 -74.14535 8362 ft 4 kts 330°
2026-05-04 17:01 4.69747 -74.14523 8362 ft 0 kts 308°
2026-05-04 17:05 4.69748 -74.14523 8362 ft 0 kts 308°
2026-05-04 17:05 4.69747 -74.14562 8362 ft 5 kts 255°
2026-05-04 17:06 4.69759 -74.14594 8362 ft 0 kts 306°
2026-05-04 17:06 4.69764 -74.14601 8362 ft 4 kts 305°
2026-05-04 17:07 4.69828 -74.14690 8361 ft 10 kts 307°
2026-05-04 17:07 4.69859 -74.14728 8361 ft 11 kts 308°
2026-05-04 17:07 4.69927 -74.14775 8361 ft 9 kts 12°
2026-05-04 17:07 4.69989 -74.14732 8361 ft 14 kts 38°
2026-05-04 17:08 4.70071 -74.14669 8361 ft 15 kts 37°
2026-05-04 17:08 4.70247 -74.14537 8361 ft 16 kts 36°
2026-05-04 17:08 4.70339 -74.14468 8361 ft 17 kts 36°
2026-05-04 17:09 4.70418 -74.14411 8361 ft 9 kts 35°
2026-05-04 17:09 4.70474 -74.14398 8361 ft 9 kts 338°
2026-05-04 17:09 4.70521 -74.14452 8361 ft 14 kts 307°
2026-05-04 17:10 4.70681 -74.14666 8361 ft 21 kts 307°
2026-05-04 17:10 4.70950 -74.15024 8361 ft 22 kts 307°
2026-05-04 17:11 4.71045 -74.15148 8361 ft 22 kts 308°
2026-05-04 17:11 4.71128 -74.15256 8361 ft 11 kts 307°
2026-05-04 17:11 4.71242 -74.15281 8361 ft 6 kts 35°
2026-05-04 17:12 4.71275 -74.15250 8361 ft 7 kts 46°
2026-05-04 17:12 4.71299 -74.15152 8360 ft 10 kts 128°
2026-05-04 17:13 4.70473 -74.14060 8360 ft 145 kts 127°
2026-05-04 17:14 4.68641 -74.10882 9694 ft 187 kts 87°
2026-05-04 17:14 4.69151 -74.09652 10090 ft 205 kts 47°
2026-05-04 17:14 4.72010 -74.08476 10704 ft 241 kts 19°
2026-05-04 17:15 4.73637 -74.07978 11058 ft 246 kts 22°
2026-05-04 17:15 4.76928 -74.06956 11775 ft 250 kts 20°
2026-05-04 17:16 4.80316 -74.05891 12481 ft 271 kts 21°
2026-05-04 17:16 4.86313 -74.03903 13589 ft 333 kts 21°
2026-05-04 17:17 4.88543 -74.03149 13969 ft 343 kts 21°
2026-05-04 17:17 4.95444 -74.00820 15669 ft 355 kts 21°
2026-05-04 17:18 4.97795 -74.00030 16368 ft 358 kts 21°
2026-05-04 17:18 5.02598 -73.98426 17484 ft 365 kts 20°
2026-05-04 17:19 5.07552 -73.97111 18808 ft 372 kts 16°
2026-05-04 17:19 5.12603 -73.95934 19904 ft 378 kts 16°
2026-05-04 17:20 5.17747 -73.94706 20298 ft 379 kts 17°
2026-05-04 17:20 5.22856 -73.93442 20297 ft 378 kts 17°
2026-05-04 17:20 5.25404 -73.92804 20313 ft 377 kts 17°
2026-05-04 17:21 5.30504 -73.91528 20282 ft 378 kts 17°
2026-05-04 17:21 5.35608 -73.90257 20282 ft 378 kts 17°
2026-05-04 17:22 5.38162 -73.89620 20282 ft 378 kts 17°
2026-05-04 17:22 5.40713 -73.88984 20282 ft 378 kts 17°
2026-05-04 17:23 5.48443 -73.87051 21177 ft 384 kts 17°
2026-05-04 17:23 5.51033 -73.86406 21237 ft 384 kts 16°
2026-05-04 17:23 5.56267 -73.85166 21719 ft 389 kts 14°
2026-05-04 17:24 5.58931 -73.84613 22310 ft 392 kts 13°
2026-05-04 17:24 5.67064 -73.83000 23961 ft 402 kts 13°
2026-05-04 17:25 5.69821 -73.82446 24426 ft 405 kts 13°
2026-05-04 17:25 5.75390 -73.81303 25272 ft 412 kts 13°
2026-05-04 17:26 5.81047 -73.80131 26117 ft 418 kts 13°
2026-05-04 17:26 5.89688 -73.78352 27302 ft 428 kts 14°
2026-05-04 17:27 5.95561 -73.77143 28112 ft 434 kts 13°
2026-05-04 17:27 6.01525 -73.75914 28875 ft 440 kts 14°
2026-05-04 17:28 6.07567 -73.74665 29648 ft 447 kts 13°
2026-05-04 17:29 6.15752 -73.72983 30556 ft 455 kts 13°
2026-05-04 17:29 6.25122 -73.71055 31552 ft 462 kts 13°
2026-05-04 17:30 6.34646 -73.69099 32490 ft 469 kts 13°
2026-05-04 17:31 6.41013 -73.67774 33435 ft 466 kts 12°
2026-05-04 17:31 6.50489 -73.65819 34791 ft 461 kts 12°
2026-05-04 17:32 6.56751 -73.64529 35622 ft 458 kts 12°
2026-05-04 17:33 6.66086 -73.62608 36011 ft 448 kts 11°
2026-05-04 17:33 6.69127 -73.61983 36010 ft 445 kts 11°
2026-05-04 17:34 6.81240 -73.59483 35975 ft 444 kts 11°
2026-05-04 17:35 6.96370 -73.56371 35949 ft 444 kts
2026-05-04 17:36 7.02523 -73.56285 35939 ft 443 kts 356°
2026-05-04 17:36 7.08690 -73.56589 35954 ft 443 kts 357°
2026-05-04 17:37 7.14855 -73.56877 35952 ft 443 kts 357°
2026-05-04 17:37 7.21016 -73.57170 35952 ft 443 kts 357°
2026-05-04 17:38 7.27178 -73.57459 35954 ft 443 kts 357°
2026-05-04 17:38 7.33341 -73.57753 35945 ft 443 kts 357°
2026-05-04 17:39 7.42579 -73.58200 35944 ft 443 kts 357°
2026-05-04 17:39 7.48741 -73.58496 35938 ft 443 kts 357°
2026-05-04 17:40 7.54898 -73.58789 35935 ft 443 kts 357°
2026-05-04 17:40 7.61053 -73.59084 35933 ft 443 kts 357°
2026-05-04 17:41 7.67203 -73.59381 35936 ft 442 kts 357°
2026-05-04 17:41 7.73346 -73.59669 35947 ft 441 kts 356°
2026-05-04 17:42 7.79476 -73.59956 35946 ft 441 kts 357°
2026-05-04 17:42 7.85601 -73.60248 35945 ft 440 kts 356°
2026-05-04 17:43 7.91712 -73.60541 35949 ft 440 kts 357°
2026-05-04 17:43 7.97826 -73.60838 35946 ft 439 kts 357°
2026-05-04 17:44 8.03937 -73.61139 35934 ft 440 kts 356°
2026-05-04 17:44 8.10028 -73.61429 35924 ft 441 kts 356°
2026-05-04 17:45 8.16115 -73.62075 35925 ft 440 kts 344°
2026-05-04 17:45 8.18988 -73.63125 35925 ft 439 kts 333°
2026-05-04 17:45 8.21608 -73.64681 35925 ft 437 kts 322°
2026-05-04 17:46 8.23890 -73.66696 35904 ft 436 kts 311°
2026-05-04 17:46 8.25922 -73.68975 35897 ft 436 kts 311°
2026-05-04 17:46 8.29987 -73.73530 35905 ft 438 kts 311°
2026-05-04 17:47 8.34075 -73.78100 35905 ft 439 kts 311°
2026-05-04 17:47 8.38161 -73.82680 35909 ft 439 kts 311°
2026-05-04 17:48 8.42251 -73.87265 35909 ft 440 kts 311°
2026-05-04 17:48 8.46351 -73.91865 35904 ft 440 kts 311°
2026-05-04 17:49 8.50446 -73.96467 35905 ft 441 kts 311°
2026-05-04 17:49 8.54548 -74.01073 35910 ft 441 kts 311°
2026-05-04 17:50 8.58647 -74.05674 35924 ft 440 kts 311°
2026-05-04 17:50 8.62732 -74.10274 35919 ft 439 kts 311°
2026-05-04 17:51 8.64780 -74.12578 35808 ft 444 kts 311°
2026-05-04 17:51 8.66849 -74.14905 35567 ft 444 kts 311°
2026-05-04 17:51 8.68911 -74.17224 35333 ft 443 kts 311°
2026-05-04 17:51 8.70967 -74.19535 35101 ft 442 kts 311°
2026-05-04 17:52 8.73015 -74.21838 34870 ft 440 kts 311°
2026-05-04 17:52 8.75062 -74.24140 34641 ft 439 kts 311°
2026-05-04 17:52 8.77096 -74.26429 34409 ft 435 kts 311°
2026-05-04 17:52 8.79110 -74.28696 34184 ft 432 kts 311°
2026-05-04 17:53 8.81111 -74.30949 33958 ft 430 kts 311°
2026-05-04 17:53 8.83103 -74.33195 33712 ft 428 kts 311°
2026-05-04 17:53 8.85086 -74.35432 33457 ft 426 kts 311°
2026-05-04 17:53 8.87063 -74.37658 33207 ft 425 kts 311°
2026-05-04 17:54 8.89036 -74.39880 32957 ft 423 kts 311°
2026-05-04 17:54 8.90998 -74.42090 32702 ft 421 kts 311°
2026-05-04 17:54 8.92947 -74.44289 32250 ft 418 kts 311°
2026-05-04 17:54 8.94885 -74.46475 31763 ft 417 kts 312°
2026-05-04 17:55 8.96818 -74.48655 31282 ft 416 kts 312°
2026-05-04 17:55 8.98744 -74.50831 30806 ft 415 kts 312°
2026-05-04 17:55 9.00669 -74.53000 30341 ft 414 kts 312°
2026-05-04 17:55 9.02588 -74.55163 29862 ft 413 kts 312°
2026-05-04 17:56 9.04500 -74.57317 29383 ft 410 kts 312°
2026-05-04 17:56 9.06401 -74.59459 28943 ft 407 kts 312°
2026-05-04 17:56 9.08280 -74.61585 28508 ft 404 kts 312°
2026-05-04 17:56 9.10172 -74.63727 28071 ft 402 kts 312°
2026-05-04 17:57 9.12032 -74.65832 27636 ft 400 kts 312°
2026-05-04 17:57 9.13860 -74.67898 27206 ft 399 kts 312°
2026-05-04 17:57 9.15708 -74.69982 26758 ft 397 kts 312°
2026-05-04 17:57 9.17554 -74.72061 26302 ft 397 kts 312°
2026-05-04 17:58 9.19396 -74.74137 25843 ft 397 kts 312°
2026-05-04 17:58 9.21238 -74.76218 25366 ft 397 kts 312°
2026-05-04 17:58 9.23081 -74.78301 24887 ft 397 kts 312°
2026-05-04 17:58 9.24928 -74.80388 24407 ft 398 kts 312°
2026-05-04 17:59 9.26760 -74.82464 23966 ft 396 kts 312°
2026-05-04 17:59 9.28632 -74.84495 23651 ft 391 kts 318°
2026-05-04 17:59 9.32968 -74.87742 22763 ft 386 kts 326°
2026-05-04 18:00 9.35157 -74.89300 22309 ft 384 kts 326°
2026-05-04 18:00 9.37334 -74.90849 21866 ft 382 kts 326°
2026-05-04 18:00 9.39502 -74.92389 21353 ft 379 kts 326°
2026-05-04 18:00 9.41652 -74.93917 20779 ft 377 kts 326°
2026-05-04 18:01 9.43792 -74.95440 20227 ft 375 kts 326°
2026-05-04 18:01 9.45917 -74.96956 19671 ft 373 kts 326°
2026-05-04 18:01 9.48037 -74.98469 19136 ft 371 kts 326°
2026-05-04 18:02 9.52210 -75.01452 18253 ft 363 kts 326°
2026-05-04 18:02 9.54269 -75.02919 17780 ft 360 kts 326°
2026-05-04 18:02 9.56301 -75.04370 17355 ft 355 kts 326°
2026-05-04 18:02 9.58306 -75.05800 16941 ft 351 kts 326°
2026-05-04 18:03 9.60288 -75.07214 16531 ft 347 kts 326°
2026-05-04 18:03 9.62252 -75.08614 16131 ft 343 kts 326°
2026-05-04 18:03 9.64198 -75.10000 15738 ft 340 kts 326°
2026-05-04 18:03 9.66124 -75.11373 15348 ft 337 kts 326°
2026-05-04 18:04 9.68037 -75.12737 14967 ft 335 kts 326°
2026-05-04 18:04 9.69943 -75.14097 14605 ft 333 kts 326°
2026-05-04 18:04 9.73686 -75.16772 13903 ft 327 kts 326°
2026-05-04 18:05 9.75564 -75.18074 13498 ft 326 kts 328°
2026-05-04 18:05 9.77473 -75.19353 13102 ft 323 kts 328°
2026-05-04 18:05 9.79324 -75.20576 12715 ft 321 kts 329°
2026-05-04 18:05 9.81185 -75.21804 12342 ft 318 kts 328°
2026-05-04 18:06 9.84851 -75.24233 11578 ft 312 kts 328°
2026-05-04 18:06 9.86655 -75.25435 11188 ft 309 kts 328°
2026-05-04 18:06 9.88444 -75.26631 10808 ft 307 kts 328°
2026-05-04 18:07 9.90224 -75.27824 10419 ft 306 kts 328°
2026-05-04 18:07 9.91992 -75.29010 10032 ft 304 kts 328°
2026-05-04 18:07 9.93183 -75.29808 9749 ft 303 kts 328°
2026-05-04 18:07 9.95509 -75.31363 9187 ft 300 kts 328°
2026-05-04 18:08 9.96683 -75.32148 8924 ft 299 kts 328°
2026-05-04 18:08 9.98416 -75.33303 8498 ft 296 kts 328°
2026-05-04 18:08 10.00127 -75.34446 8101 ft 293 kts 328°
2026-05-04 18:08 10.01824 -75.35582 7673 ft 291 kts 328°
2026-05-04 18:09 10.05181 -75.37829 6830 ft 287 kts 327°
2026-05-04 18:09 10.08504 -75.40059 5951 ft 285 kts 327°
2026-05-04 18:10 10.10148 -75.41161 5505 ft 283 kts 327°
2026-05-04 18:10 10.11784 -75.42257 5074 ft 281 kts 327°
2026-05-04 18:10 10.13398 -75.43337 4639 ft 282 kts 327°
2026-05-04 18:10 10.15038 -75.44433 4167 ft 283 kts 327°
2026-05-04 18:11 10.16668 -75.45523 3984 ft 274 kts 327°
2026-05-04 18:11 10.18221 -75.46562 3908 ft 261 kts 327°
2026-05-04 18:11 10.19704 -75.47556 3806 ft 250 kts 327°
2026-05-04 18:11 10.21132 -75.48513 3703 ft 241 kts 327°
2026-05-04 18:12 10.22502 -75.49431 3598 ft 232 kts 327°
2026-05-04 18:12 10.23831 -75.50321 3495 ft 228 kts 327°
2026-05-04 18:12 10.25149 -75.51204 3397 ft 226 kts 326°
2026-05-04 18:12 10.26528 -75.51881 3294 ft 217 kts 349°
2026-05-04 18:13 10.28005 -75.51960 3087 ft 213 kts
2026-05-04 18:13 10.29530 -75.51897 2621 ft 224 kts
2026-05-04 18:13 10.32610 -75.51767 1972 ft 210 kts
2026-05-04 18:14 10.34027 -75.51709 1719 ft 198 kts
2026-05-04 18:14 10.35354 -75.51654 1483 ft 180 kts
2026-05-04 18:14 10.36541 -75.51606 1260 ft 162 kts
2026-05-04 18:15 10.38630 -75.51520 881 ft 141 kts
2026-05-04 18:15 10.40502 -75.51450 533 ft 129 kts
2026-05-04 18:15 10.41418 -75.51405 359 ft 134 kts 360°
2026-05-04 18:16 10.42329 -75.51368 202 ft 128 kts 360°
2026-05-04 18:16 10.43199 -75.51331 36 ft 122 kts
2026-05-04 18:16 10.43947 -75.51302 10 ft 88 kts
2026-05-04 18:17 10.44611 -75.51284 12 ft 12 kts 343°
2026-05-04 18:17 10.44639 -75.51308 12 ft 5 kts 304°
2026-05-04 18:17 10.44641 -75.51480 12 ft 13 kts 279°
2026-05-04 18:18 10.44648 -75.51540 12 ft 4 kts 272°
2026-05-04 18:18 10.44649 -75.51552 12 ft 0 kts 271°